Weather in Tarifa

Spain     36°00′52″N   5°36′17″W
temp.,
°C
wind,
m/s
gust,
m/s
humid.,
%
clouds,
%
prec.,
mm/h
press.,
hPa
HPBL,
m
13 april, tue
tue1323:00+15e9129464 0.3 1023750
02:00+15e91291100 0.4 1022846
05:00+15e91290100 0.1 1021890
08:00+15ene91292100 0.3 1021872
11:00+15ene9128997 0.1 1022848
14:00+15ene9128899 0.3 1021817
17:00+16ene91184100 0.1 1020813
20:00+15e81288100 0.1 1019721
14 april, wed
wed1423:00+15e91287100 0.0 1019728
02:00+15ene101488100 0.0 1018785
05:00+15e91285100 0.0 1016813
08:00+15e81189100 0.2 1016777
11:00+14e81094100 1.6 1017725
14:00+14e81192100 5.1 1016841
17:00+14e91190100 0.3 1015816
20:00+14e101285100 0.5 1015979
15 april, thu
thu1523:00+14ene91287100 0.1 1015926
02:00+14e91183100 0.1 1014931
05:00+14e81087100 0.1 1013818
08:00+14e6993100 0.8 1012717
11:00+14e71093100 1.9 1013804
14:00+14e6993100 4.3 1013733
17:00+14e6891100 0.8 1013732
20:00
16 april, fri
fri1623:00+14ese6887100 0.1 1015606
02:00+14e578499 0.2 1015524
05:00+14e568529 0.1 1015504
08:00+13e568723 0.1 1015433
11:00+15e458042 0.1 1017676
14:00+16e43737 0.1 1016640
17:00+17e327314 0.0 1015414
20:00+15e33785 0.0 1016323
17 april, sat
sat1723:00+14w45885 0.0 1016140
02:00+14wsw46929 0.0 1015234
05:00+15wsw689284 0.0 1014295
08:00+14wsw579334 0.0 1014245
11:00+17wsw56825 0.1 1016501
14:00+17ne338261 0.8 1017498
17:00+15ene568676 0.2 1018564
20:00+15e568284 0.3 1019639